Vorticity
10 9 9 9 10 11 11 11 11 9 9 8 8 7 6 4 3 2 3 4 5 5 6 5 5 5 4 4 4 4 5 5 9 17 20 12 11 8 5 8 7 6 6 6 7 8 10 10 10 9 8 8 7 9 11 12 10 8 8 7 8 8 8 9 7 -1 -5 4 10 8 9 10 9 7 6 4 3 4 4 5 3 3 4 3 4 3 3 3
12 10 10 9 9 10 10 11 11 11 10 9 9 9 9 6 4 3 2 3 3 4 5 5 6 5 6 5 4 4 4 5 5 10 15 14 17 14 5 6 7 6 6 4 5 6 8 10 10 10 9 8 7 8 10 12 11 9 9 6 9 8 4 1 2 -0 -6 6 15 9 8 10 9 6 5 4 3 6 4 4 4 5 4 3 4 3 3 4
13 13 11 10 10 9 10 10 10 11 10 10 10 9 10 9 7 5 3 3 2 3 4 4 5 5 5 5 6 6 3 5 5 4 8 10 18 20 7 5 6 6 6 5 5 5 6 9 10 11 10 10 9 8 9 11 12 11 9 9 11 6 3 3 5 7 1 4 13 13 9 6 7 6 5 4 2 3 3 4 4 5 7 5 4 4 4 4
12 13 13 12 10 9 9 9 9 9 9 10 10 10 10 10 9 8 6 4 3 3 3 3 4 5 5 5 6 5 5 6 2 2 6 5 14 24 13 5 6 5 7 7 6 5 5 7 9 10 9 10 10 9 8 10 12 11 9 9 10 5 4 7 7 8 5 4 7 11 9 5 7 6 4 5 4 5 4 4 3 3 6 6 4 3 4 5
10 11 13 14 13 11 10 9 9 9 9 9 9 10 10 10 10 9 8 6 5 4 3 3 3 4 5 6 5 5 8 4 2 5 6 2 9 22 19 8 6 5 6 7 7 6 5 6 7 8 9 10 10 9 9 9 11 11 11 7 5 7 8 8 7 7 7 6 4 6 8 7 6 3 3 3 2 9 10 5 6 8 6 5 4 4 4 6
9 9 10 12 14 14 12 10 10 9 9 8 8 9 9 10 10 10 10 8 7 6 5 4 3 4 4 5 5 6 6 0 5 10 6 4 5 16 23 14 7 5 4 5 7 6 5 6 7 8 8 10 9 9 10 10 10 10 12 11 9 10 10 9 8 6 6 7 6 6 6 7 5 1 3 1 -7 -0 12 10 7 5 2 5 6 5 6 5
8 9 9 9 11 13 14 12 11 10 9 9 8 8 8 9 9 10 10 9 9 7 8 6 5 5 3 5 5 6 7 1 6 8 4 6 4 8 19 19 11 6 4 5 6 5 5 5 6 7 7 9 9 9 10 9 9 9 9 10 10 8 8 9 7 6 7 7 6 4 2 5 6 2 2 3 -4 -8 2 9 10 7 1 4 8 4 5 5
7 7 8 8 9 10 12 12 12 12 11 10 9 8 8 8 8 9 9 10 10 9 9 8 7 7 5 6 5 5 6 3 6 7 2 4 5 4 13 19 16 10 5 4 5 5 5 5 5 6 7 8 8 9 10 9 10 11 11 10 10 8 8 8 5 5 6 7 7 3 2 5 5 6 3 3 4 -1 -2 2 2 3 2 2 5 5 5 5
7 7 7 7 8 9 10 11 11 12 12 11 10 10 9 8 8 7 8 8 8 9 9 9 8 7 7 6 5 6 5 4 7 8 5 4 5 4 6 15 18 15 9 5 4 4 4 5 6 6 6 7 7 9 9 10 11 10 11 11 11 9 8 7 5 6 6 7 6 2 5 7 3 4 4 2 4 1 -2 2 1 -0 2 4 5 4 5 4
7 8 7 6 6 7 9 10 10 11 11 12 11 11 11 10 9 7 8 7 7 8 8 8 8 7 8 7 7 6 4 7 7 6 7 7 6 4 3 7 14 18 15 9 4 4 5 4 6 6 6 7 7 9 9 10 10 9 10 10 9 8 8 6 5 6 6 7 6 5 7 7 4 3 5 5 3 3 3 5 5 4 3 4 7 5 3 3
6 7 8 7 6 6 7 9 9 10 10 11 11 11 11 11 11 10 9 8 7 7 7 7 7 7 7 7 7 6 7 9 6 5 7 8 6 5 4 3 6 12 17 17 9 5 4 4 5 5 7 7 7 8 10 10 10 12 13 11 10 8 7 5 6 7 5 7 5 5 8 5 5 5 5 6 2 5 9 6 5 7 4 0 5 6 3 3
6 6 7 8 8 7 6 7 8 10 10 10 11 11 11 11 11 12 11 10 9 8 8 8 7 7 6 6 7 7 10 9 6 7 7 7 7 7 5 3 3 4 10 17 17 11 5 4 4 5 7 6 7 7 8 10 11 14 13 13 13 8 8 6 7 7 5 10 7 5 10 6 7 6 4 4 7 8 4 2 4 6 6 2 6 8 4 3
8 7 7 7 9 9 7 6 7 8 9 9 10 11 11 11 11 11 11 11 11 11 10 10 9 9 9 9 9 8 8 7 6 7 7 7 8 8 6 4 4 2 3 8 16 18 12 5 2 6 7 6 8 6 8 10 9 13 11 12 13 9 9 7 8 7 4 10 6 5 11 10 8 4 2 1 4 14 12 7 3 0 4 5 7 10 6 3
9 8 8 7 8 9 9 8 7 7 8 9 9 9 10 12 12 11 11 10 10 10 10 10 10 11 11 11 10 9 8 7 7 7 8 7 7 8 7 5 4 4 4 3 6 16 20 11 3 6 5 5 9 6 8 9 10 14 10 11 11 9 10 7 9 6 7 12 4 8 21 26 20 2 0 1 -7 2 10 10 8 4 5 7 7 7 6 3
12 10 9 8 8 8 9 10 9 8 7 8 9 9 9 10 11 11 11 11 11 10 9 9 9 9 9 9 9 10 9 9 8 7 7 7 7 8 7 6 5 4 3 2 3 10 19 16 6 5 5 6 7 6 9 7 9 12 10 13 9 12 18 12 10 6 9 11 3 11 14 14 18 6 3 3 -7 -3 2 3 6 6 5 7 9 5 4 6
13 13 11 9 8 7 9 9 10 10 9 8 8 9 8 8 9 9 10 12 12 11 11 10 10 9 7 8 9 9 9 9 8 7 6 7 6 6 7 7 6 5 3 4 6 7 12 16 11 4 3 7 6 5 8 6 8 9 10 12 8 17 25 17 9 4 10 9 4 15 6 -2 9 10 14 10 0 3 5 4 0 1 6 5 7 6 6 6
14 14 12 12 9 7 8 9 10 11 11 10 9 9 8 8 9 8 9 9 9 11 12 11 11 10 9 9 10 10 10 9 8 7 8 8 6 6 8 9 7 7 5 5 5 4 5 11 15 9 1 4 7 6 5 5 5 6 9 11 11 15 15 17 12 2 10 8 6 11 -2 3 13 7 13 11 2 4 7 9 4 2 8 8 7 8 10 9
17 15 13 12 12 10 7 7 9 10 12 12 12 12 10 9 9 9 8 7 8 9 10 11 9 9 9 10 11 10 9 9 9 8 7 7 7 7 7 8 8 7 6 5 4 3 3 5 12 15 8 0 3 7 6 7 6 5 8 10 15 12 2 14 14 2 7 5 14 17 -10 -7 8 3 11 13 6 8 7 6 8 9 10 9 6 5 4 3
17 18 16 12 11 12 11 8 7 7 10 11 11 13 13 12 10 10 10 8 8 7 7 8 6 7 9 9 11 10 9 11 11 10 9 8 7 8 6 5 7 7 7 6 4 4 4 3 5 14 17 6 1 5 6 8 9 9 10 7 9 8 1 11 14 8 7 4 19 20 -8 -6 3 -4 5 23 24 13 6 5 7 11 10 5 3 3 4 1
13 16 20 18 13 10 11 11 8 6 6 8 9 9 12 14 13 12 11 10 8 5 8 8 3 6 9 7 9 10 10 11 10 10 9 8 7 7 6 6 7 7 7 6 5 5 4 3 3 9 19 15 1 1 6 6 4 7 10 5 3 4 4 12 18 11 4 14 26 13 0 9 14 1 -8 7 18 5 2 8 7 8 10 8 4 2 5 5
9 11 15 20 20 14 9 9 10 9 6 5 5 5 7 10 12 13 11 10 10 6 10 9 2 6 10 6 6 7 10 10 9 11 11 9 8 7 6 6 6 6 8 8 6 5 3 2 4 7 14 18 7 0 5 5 1 2 4 6 9 9 3 2 4 3 9 23 18 4 9 12 12 16 5 -6 -4 -2 -0 2 2 4 6 5 2 0 1 4
8 8 8 11 18 21 17 11 8 9 8 7 4 3 6 6 8 12 10 10 12 10 10 9 3 6 9 4 4 6 7 9 9 10 12 11 9 7 7 6 6 7 8 7 6 5 4 3 6 8 8 15 12 1 2 7 6 5 8 10 11 10 5 -0 -0 4 11 4 -18 -17 6 10 9 17 13 2 -0 3 5 1 1 5 5 1 -1 1 5 6
9 9 8 7 9 14 19 19 15 10 7 7 6 5 6 4 7 10 7 9 12 11 10 9 6 7 7 3 5 7 6 8 8 9 12 12 11 9 7 7 6 7 6 5 6 6 6 7 7 8 7 11 15 6 0 4 6 6 10 9 9 16 15 7 6 5 5 -1 -11 -2 7 6 13 14 5 5 9 8 8 8 9 7 4 3 3 2 4 6
9 9 9 10 9 9 12 16 20 20 14 9 6 7 7 4 7 8 6 8 10 11 11 9 7 7 7 4 5 6 5 6 6 7 10 11 12 11 8 9 7 6 6 5 6 7 7 8 8 7 7 9 13 11 3 1 6 7 7 6 8 17 12 1 4 5 5 7 3 4 3 -2 5 10 4 5 8 6 5 9 10 9 6 3 6 6 4 5
10 11 11 11 12 11 11 11 14 19 22 20 11 7 8 6 7 6 6 6 6 10 11 10 9 8 8 7 6 6 5 6 5 5 9 10 11 11 10 10 7 6 7 7 6 7 7 5 6 7 7 9 11 14 9 0 5 8 6 6 2 5 11 13 13 6 2 7 9 5 3 3 2 0 4 13 18 11 6 10 8 7 7 5 6 7 7 5
11 12 13 12 12 12 14 13 11 13 18 26 24 13 7 7 7 6 6 6 6 10 9 8 10 10 9 8 6 6 5 5 5 4 7 10 10 11 12 10 8 8 7 7 6 6 7 5 5 5 5 9 11 15 13 2 3 9 10 11 1 -6 9 22 17 7 5 7 11 10 8 12 8 -2 -1 9 17 14 8 9 10 7 4 4 8 7 6 6
13 13 13 13 13 12 12 11 11 11 11 20 29 24 12 6 7 6 4 5 7 10 8 6 8 11 12 10 8 8 6 6 5 4 7 10 10 10 12 11 9 9 7 6 6 5 6 6 6 6 6 10 10 12 14 5 3 8 11 9 -0 -10 -8 3 8 2 10 18 16 13 12 15 14 7 4 2 6 13 13 9 7 8 6 2 6 6 4 6
16 15 14 13 13 13 11 10 11 10 10 16 26 30 23 11 7 5 5 9 12 12 8 6 8 9 10 11 10 8 9 10 7 5 7 8 9 9 11 12 9 8 8 7 7 6 6 8 9 5 6 10 9 11 14 8 3 8 18 13 5 6 -4 2 21 13 7 16 18 15 7 4 7 5 4 3 5 7 9 12 9 6 7 5 6 7 4 5
21 17 15 13 13 13 11 11 13 13 15 17 20 27 29 22 15 9 8 12 17 18 12 7 7 10 12 12 11 10 8 9 8 7 9 7 6 9 11 13 11 8 8 8 8 9 7 6 9 6 7 12 10 11 11 10 5 2 18 22 11 11 -5 -14 12 22 15 12 10 15 14 9 10 6 4 7 11 9 3 11 14 7 8 8 6 7 5 4
23 19 16 14 14 14 14 15 17 16 17 18 18 21 24 26 25 19 15 10 17 25 17 10 9 8 13 13 10 13 10 7 8 7 8 7 6 8 10 11 10 9 8 7 5 10 11 4 4 8 11 13 13 12 9 10 9 -9 -8 9 9 8 3 -7 -1 4 4 5 3 6 11 12 12 10 10 8 8 13 10 10 17 13 9 9 8 6 4 4
22 19 16 16 16 15 15 15 16 15 16 17 17 17 17 20 22 23 24 13 16 30 18 10 15 10 10 14 12 13 11 9 10 7 6 7 5 6 8 7 8 9 6 6 4 6 15 12 4 7 12 12 10 12 10 5 10 3 -10 1 10 10 10 7 4 -7 -17 -10 4 15 19 17 16 14 11 8 7 12 11 10 17 15 9 8 8 6 4 4
20 19 16 16 18 16 14 14 15 14 15 15 17 17 15 15 13 16 25 13 9 26 23 12 17 16 10 13 14 13 14 14 12 9 7 7 6 5 8 8 8 10 6 8 7 -1 11 25 14 4 7 10 6 9 18 8 2 10 5 1 8 9 6 3 6 8 1 -5 -1 16 27 14 7 13 8 2 4 9 10 11 14 13 10 8 6 5 5 4
18 18 17 17 17 14 14 15 15 14 15 15 16 17 16 16 15 15 21 14 4 15 27 21 18 22 17 13 14 13 15 18 13 12 10 8 10 9 9 8 7 12 9 12 14 -5 -2 22 22 7 2 10 7 -1 15 19 3 6 8 5 9 9 7 6 6 8 13 9 -11 -10 16 13 2 10 14 9 5 4 5 7 13 15 10 7 6 4 4 3
18 17 16 18 15 15 15 12 14 16 15 15 16 17 16 13 16 20 17 16 13 10 20 25 18 21 23 17 15 13 13 15 11 14 14 9 9 8 9 8 4 10 10 15 23 2 -13 -0 12 13 5 11 13 -7 3 25 10 2 10 11 11 11 9 10 11 9 15 21 0 -14 4 12 3 -1 1 10 11 6 5 2 9 17 12 7 6 5 4 3
22 18 16 17 14 15 15 12 15 15 13 17 13 11 18 16 20 27 13 8 20 15 14 27 22 19 23 19 19 17 16 17 14 15 15 11 11 9 9 11 8 8 6 12 21 12 3 5 13 22 12 9 16 -3 -1 23 14 4 12 8 -0 2 12 20 18 10 13 26 20 3 -4 -6 1 4 0 7 9 3 6 7 8 12 10 8 6 5 5 3
22 20 18 17 15 15 14 13 16 14 14 18 10 11 23 21 22 26 8 1 19 15 10 27 28 21 23 18 17 18 13 15 18 18 15 13 14 12 9 11 13 9 3 10 15 8 11 18 21 22 12 9 15 0 -6 8 11 8 6 5 7 6 7 19 26 16 6 13 19 15 8 1 6 10 4 9 17 12 5 5 9 11 7 7 7 5 5 2
23 23 20 19 17 16 16 14 15 15 16 16 14 16 15 9 16 21 5 -0 13 11 6 20 29 24 19 14 19 22 9 4 14 19 17 13 12 13 11 9 11 12 3 8 20 13 2 11 26 23 10 12 16 8 7 9 8 12 8 7 15 9 -8 -5 21 34 16 1 5 10 13 12 10 13 6 1 9 15 9 2 5 9 9 7 6 5 2 1
23 22 21 21 17 15 16 15 15 16 18 18 16 14 6 3 13 16 7 5 9 8 4 11 28 30 15 10 26 29 10 -0 6 13 20 21 14 13 16 11 11 17 6 -2 18 25 4 3 30 34 13 13 17 9 11 16 11 10 17 20 16 9 -2 -18 -6 24 20 5 9 10 10 9 5 13 23 16 8 8 10 10 9 9 10 9 5 4 2 1
18 16 17 21 19 18 16 15 16 16 19 19 14 13 8 7 12 10 9 12 9 10 6 3 23 32 10 8 33 34 17 10 7 5 11 19 15 13 19 17 13 20 14 -4 1 17 7 -7 11 35 29 15 16 13 5 9 12 -2 -3 9 6 5 10 -8 -16 5 10 3 8 7 5 11 9 8 13 17 16 11 5 6 11 12 11 7 3 2 1 0
12 12 12 16 22 25 20 18 17 18 25 21 13 9 -9 -9 18 19 8 16 15 11 7 1 18 28 6 4 25 30 24 17 9 7 11 16 19 13 9 9 9 16 18 5 -1 8 10 -5 -11 21 45 21 2 12 9 6 13 2 -4 7 4 3 10 -1 -10 4 14 14 16 16 12 8 9 10 7 4 8 14 11 6 8 12 12 10 7 4 3 2
15 10 10 21 30 26 22 24 19 24 34 18 6 2 -25 -18 33 31 10 24 17 -1 4 7 13 17 5 2 12 19 26 18 2 5 15 18 22 13 4 7 14 19 15 5 5 10 11 6 -12 -7 32 37 9 10 14 9 14 14 12 18 12 7 8 -1 -9 -5 8 16 9 10 15 7 2 6 7 9 10 11 14 12 8 8 9 10 11 9 9 8
21 15 20 30 29 19 15 19 22 30 30 4 -3 5 -16 -10 31 28 16 26 6 -9 10 14 8 10 4 5 13 17 26 21 1 0 12 16 18 15 8 9 14 18 13 3 9 17 10 13 6 -15 8 41 31 20 15 1 8 21 17 10 5 9 11 6 4 -2 1 15 8 0 11 15 12 9 2 7 15 11 10 13 12 10 10 11 11 10 10 10
16 22 31 28 22 21 16 15 25 28 15 0 7 12 -8 -8 18 25 25 20 -2 -2 14 9 8 13 2 -1 12 16 20 21 6 0 14 17 15 18 8 3 12 17 12 2 5 15 8 8 13 -6 -4 20 21 24 25 3 -2 19 27 11 -4 7 17 9 10 9 2 9 10 7 18 22 21 23 15 7 8 7 6 8 9 8 7 8 8 8 8 6
5 13 26 28 24 24 18 19 26 20 11 11 14 7 -7 -1 22 30 28 18 0 -2 7 8 12 12 1 -2 10 16 19 22 8 -5 11 18 12 14 5 -3 15 25 15 3 -1 9 13 11 9 -4 -5 9 7 11 27 19 0 2 23 27 3 4 27 18 2 6 5 4 5 5 13 17 15 21 24 16 9 8 8 9 11 12 9 9 9 8 8 9
13 11 21 25 16 9 11 20 18 8 5 1 -5 2 8 18 28 20 13 13 4 -4 3 16 17 6 -0 1 9 19 19 15 7 -5 6 18 13 12 8 0 11 20 18 12 2 7 19 19 12 -4 -7 10 12 4 13 20 13 0 9 27 7 -9 17 24 4 3 10 7 4 4 2 -1 -2 1 8 12 11 9 9 9 11 14 14 14 14 13 14 14
24 19 19 14 8 10 15 17 8 -2 -5 -12 -4 20 26 23 16 1 3 14 7 -2 2 14 18 2 -5 2 10 23 20 6 6 3 -0 12 19 14 11 10 11 11 14 15 9 9 13 14 12 0 -7 5 11 11 13 13 17 12 3 14 14 -5 2 18 9 5 14 9 -1 4 12 10 9 8 7 11 15 13 11 9 7 10 11 10 11 12 13 13
21 17 11 3 6 11 6 5 4 -5 -6 5 22 29 21 15 1 -9 13 26 10 2 1 10 20 1 -7 11 11 12 20 9 4 5 -5 1 20 20 12 10 9 8 10 13 13 12 7 8 14 6 -3 2 7 11 15 12 16 20 7 7 18 10 3 14 13 2 7 12 4 6 15 16 17 18 12 10 13 13 12 11 10 11 11 10 10 10 10 12
14 9 3 -2 1 6 9 19 18 3 5 24 28 16 12 13 -6 -12 21 32 12 8 7 11 19 -1 -9 15 9 2 24 22 8 8 -1 -4 9 19 17 10 5 10 11 10 13 13 7 8 14 10 4 6 9 8 10 11 13 18 17 13 14 12 8 12 16 8 3 7 8 10 15 13 10 11 8 5 5 6 6 7 9 11 12 12 11 11 11 13
11 9 7 5 8 17 22 22 17 9 16 27 22 14 18 15 -7 -7 25 35 18 18 19 14 12 -3 -9 7 7 5 18 18 13 14 8 4 5 10 18 15 9 12 12 10 12 11 10 12 9 6 6 6 6 7 7 7 3 2 10 14 10 11 11 6 7 8 4 2 3 5 12 13 9 8 9 10 9 10 11 11 11 12 13 14 15 14 14 15
4 5 6 10 20 27 20 13 15 18 16 9 -2 -2 11 17 6 4 21 30 22 18 20 17 12 3 -4 -4 2 7 8 9 15 10 6 14 13 7 13 17 15 14 8 9 15 11 9 17 14 6 5 2 -0 4 9 9 4 2 9 14 10 8 9 7 6 1 -6 -7 -4 -4 -2 3 5 6 8 9 10 11 13 15 15 14 13 13 14 13 13 13
9 12 14 21 27 23 16 16 20 19 9 -6 -18 -13 7 21 19 14 16 21 20 16 15 17 13 6 2 -1 2 6 4 7 15 7 2 15 20 13 15 18 16 14 7 6 15 13 5 10 17 11 5 1 -3 -1 9 14 12 9 10 12 13 13 10 10 12 7 -1 -4 -2 -1 0 3 6 8 7 8 9 10 12 13 13 12 11 10 9 9 9 9
21 21 19 21 17 7 7 10 10 9 7 6 10 18 25 28 21 13 12 14 15 14 13 11 6 3 8 11 10 7 5 7 12 11 4 5 10 13 16 18 15 13 11 8 9 11 4 8 19 14 4 7 7 1 6 15 15 12 11 9 8 8 7 6 6 5 3 1 -1 1 5 7 8 11 12 13 13 12 12 12 11 11 11 10 9 8 8 8
Height
5721 5722 5724 5725 5727 5729 5731 5733 5735 5737 5739 5741 5744 5746 5748 5751 5753 5756 5758 5761 5763 5765 5767 5768 5770 5772 5774 5776 5777 5779 5780 5781 5782 5784 5786 5787 5789 5792 5795 5797 5800 5802 5803 5805 5806 5808 5809 5811 5812 5814 5815 5817 5818 5819 5821 5822 5824 5826 5828 5830 5832 5835 5836 5835 5836 5838 5834 5833 5840 5844 5845 5847 5848 5849 5850 5852 5852 5852 5853 5853 5854 5855 5855 5855 5855 5855 5856 5858
5716 5717 5718 5720 5721 5723 5725 5727 5729 5731 5733 5735 5738 5740 5743 5746 5748 5751 5754 5756 5758 5760 5762 5764 5766 5768 5770 5772 5774 5776 5777 5778 5780 5782 5783 5783 5785 5789 5793 5795 5797 5798 5800 5802 5803 5805 5807 5808 5810 5811 5813 5814 5815 5817 5819 5820 5822 5824 5826 5828 5830 5832 5832 5828 5829 5831 5830 5834 5841 5842 5843 5845 5847 5848 5849 5850 5850 5851 5851 5851 5852 5852 5853 5854 5854 5855 5856 5857
5710 5711 5712 5714 5716 5717 5720 5722 5724 5726 5727 5730 5732 5735 5737 5740 5743 5746 5749 5751 5754 5756 5758 5760 5762 5764 5766 5768 5770 5772 5774 5776 5777 5778 5779 5780 5782 5787 5790 5792 5793 5795 5797 5799 5801 5803 5804 5806 5808 5809 5810 5811 5813 5814 5816 5818 5820 5821 5823 5826 5828 5828 5825 5823 5828 5830 5831 5837 5840 5840 5842 5843 5844 5846 5848 5848 5849 5850 5850 5850 5850 5850 5852 5852 5853 5854 5855 5856
5704 5706 5707 5708 5710 5712 5714 5716 5718 5720 5722 5724 5726 5729 5731 5734 5737 5740 5743 5746 5749 5751 5754 5756 5758 5760 5763 5765 5767 5769 5771 5773 5773 5775 5777 5777 5780 5784 5786 5789 5790 5792 5794 5796 5799 5800 5802 5804 5805 5806 5807 5809 5810 5812 5813 5815 5817 5818 5820 5824 5824 5822 5821 5824 5828 5829 5832 5836 5838 5840 5842 5842 5843 5846 5846 5847 5848 5849 5848 5848 5848 5849 5850 5850 5851 5852 5854 5855
5699 5700 5701 5703 5704 5706 5708 5710 5712 5715 5717 5718 5721 5723 5726 5729 5731 5735 5738 5741 5744 5747 5749 5752 5754 5756 5759 5761 5763 5765 5767 5768 5769 5773 5774 5774 5778 5781 5783 5785 5787 5789 5791 5794 5796 5798 5800 5801 5803 5804 5805 5806 5807 5809 5811 5812 5813 5815 5819 5820 5818 5819 5821 5822 5824 5827 5831 5833 5835 5837 5839 5839 5842 5844 5845 5846 5847 5847 5846 5847 5848 5848 5848 5849 5850 5851 5852 5853
5693 5695 5696 5697 5699 5700 5702 5704 5706 5709 5711 5713 5715 5718 5720 5723 5726 5729 5732 5736 5739 5742 5744 5747 5750 5752 5755 5757 5759 5761 5763 5763 5766 5771 5771 5772 5776 5778 5780 5782 5784 5786 5789 5791 5793 5795 5797 5799 5800 5802 5803 5804 5805 5807 5808 5809 5811 5813 5816 5816 5816 5819 5820 5819 5823 5827 5829 5830 5832 5834 5835 5838 5840 5841 5842 5842 5842 5843 5844 5845 5847 5847 5848 5848 5849 5849 5851 5852
5688 5689 5690 5692 5693 5695 5696 5698 5700 5703 5705 5707 5709 5712 5715 5718 5721 5724 5727 5731 5734 5737 5739 5742 5745 5748 5750 5753 5755 5757 5759 5759 5764 5768 5768 5769 5773 5775 5777 5778 5780 5783 5786 5788 5790 5793 5794 5796 5798 5799 5800 5801 5803 5804 5805 5806 5809 5811 5812 5813 5814 5817 5816 5817 5822 5824 5826 5828 5830 5832 5835 5838 5839 5839 5840 5839 5840 5841 5842 5844 5846 5846 5847 5847 5847 5848 5849 5850
5682 5683 5684 5686 5688 5689 5691 5692 5694 5697 5699 5701 5703 5707 5710 5712 5715 5719 5722 5725 5729 5731 5734 5737 5740 5743 5746 5748 5750 5753 5755 5756 5760 5764 5765 5767 5770 5772 5774 5775 5777 5780 5783 5785 5787 5790 5792 5794 5795 5797 5798 5799 5800 5801 5802 5805 5807 5808 5809 5811 5812 5813 5813 5816 5820 5822 5825 5827 5828 5831 5834 5835 5835 5836 5837 5837 5838 5840 5841 5843 5844 5845 5846 5846 5846 5846 5847 5848
5675 5677 5678 5680 5682 5683 5685 5687 5689 5691 5693 5695 5698 5701 5704 5707 5710 5713 5717 5720 5723 5726 5729 5732 5735 5738 5741 5744 5746 5749 5750 5752 5757 5761 5762 5764 5766 5770 5772 5773 5775 5776 5779 5782 5784 5787 5789 5791 5793 5794 5796 5796 5798 5799 5800 5803 5804 5805 5807 5809 5809 5810 5812 5814 5817 5820 5823 5825 5827 5829 5830 5831 5833 5834 5835 5835 5837 5838 5840 5841 5842 5843 5844 5844 5844 5844 5846 5846
5668 5670 5672 5674 5676 5678 5679 5681 5683 5685 5687 5689 5692 5695 5698 5702 5705 5708 5712 5715 5718 5721 5724 5727 5730 5733 5736 5739 5742 5744 5746 5750 5754 5756 5758 5761 5763 5767 5769 5770 5772 5773 5776 5779 5782 5784 5786 5788 5790 5791 5793 5794 5796 5796 5799 5800 5800 5802 5804 5806 5806 5808 5809 5812 5815 5818 5820 5823 5825 5827 5828 5829 5831 5834 5833 5833 5835 5837 5839 5840 5841 5841 5841 5842 5842 5843 5844 5845
5661 5663 5665 5667 5669 5671 5674 5675 5677 5679 5681 5684 5687 5689 5692 5696 5699 5703 5706 5709 5712 5715 5718 5721 5725 5728 5731 5734 5737 5739 5743 5747 5749 5752 5756 5758 5760 5763 5766 5768 5769 5771 5773 5776 5778 5781 5783 5785 5787 5789 5791 5792 5794 5795 5797 5797 5798 5801 5803 5803 5804 5805 5807 5811 5814 5816 5819 5821 5823 5825 5825 5826 5830 5831 5829 5831 5834 5835 5837 5838 5839 5839 5839 5840 5840 5841 5843 5844
5654 5656 5658 5660 5663 5665 5667 5669 5671 5673 5676 5679 5681 5684 5687 5690 5694 5697 5701 5704 5707 5710 5713 5716 5719 5723 5725 5729 5732 5735 5740 5743 5745 5749 5752 5754 5757 5759 5762 5765 5767 5768 5770 5773 5775 5777 5780 5782 5785 5788 5788 5790 5792 5793 5794 5795 5797 5800 5801 5802 5803 5804 5806 5809 5812 5815 5818 5818 5821 5823 5823 5825 5827 5827 5827 5831 5833 5834 5835 5836 5837 5838 5838 5838 5838 5840 5841 5842
5646 5648 5651 5653 5656 5658 5660 5663 5665 5668 5671 5673 5676 5679 5682 5685 5688 5692 5695 5698 5701 5704 5708 5710 5714 5717 5720 5725 5728 5731 5736 5739 5741 5745 5748 5751 5753 5756 5759 5761 5764 5766 5768 5770 5772 5774 5777 5780 5784 5784 5785 5789 5790 5790 5792 5794 5796 5797 5799 5800 5801 5802 5804 5807 5810 5812 5814 5815 5819 5821 5822 5824 5824 5824 5827 5829 5830 5832 5833 5834 5836 5836 5836 5836 5837 5838 5839 5840
5638 5640 5643 5645 5648 5651 5654 5656 5659 5662 5665 5668 5671 5674 5677 5679 5682 5686 5689 5693 5696 5699 5702 5705 5708 5711 5715 5720 5724 5727 5732 5734 5736 5741 5744 5747 5750 5752 5755 5758 5761 5763 5765 5767 5769 5771 5774 5778 5781 5781 5784 5787 5786 5787 5791 5792 5794 5796 5797 5798 5799 5800 5802 5805 5807 5810 5812 5813 5817 5821 5824 5823 5819 5823 5826 5827 5829 5830 5831 5833 5834 5834 5834 5834 5836 5836 5837 5838
5630 5632 5635 5638 5640 5644 5647 5649 5653 5656 5659 5662 5665 5668 5671 5674 5677 5681 5684 5687 5690 5694 5697 5700 5703 5707 5711 5715 5718 5722 5727 5730 5733 5737 5740 5743 5746 5749 5751 5754 5757 5759 5762 5764 5766 5769 5772 5775 5777 5778 5782 5784 5783 5787 5789 5789 5792 5793 5795 5796 5797 5799 5801 5802 5804 5808 5809 5811 5815 5820 5824 5820 5816 5821 5823 5824 5827 5828 5830 5831 5831 5832 5832 5833 5834 5834 5835 5836
5621 5624 5628 5631 5633 5636 5639 5643 5646 5649 5653 5656 5659 5662 5666 5669 5672 5675 5678 5681 5685 5688 5692 5695 5698 5702 5705 5710 5714 5718 5722 5725 5729 5732 5736 5740 5742 5745 5748 5750 5753 5756 5759 5761 5764 5767 5769 5771 5773 5776 5779 5780 5782 5786 5787 5788 5790 5791 5793 5795 5796 5800 5800 5798 5801 5806 5807 5809 5813 5818 5821 5816 5814 5819 5820 5821 5825 5826 5828 5829 5829 5830 5830 5831 5832 5832 5833 5832
5612 5616 5619 5623 5626 5629 5632 5636 5640 5643 5647 5650 5653 5656 5660 5663 5666 5670 5673 5676 5680 5683 5686 5690 5694 5697 5701 5705 5711 5715 5718 5721 5724 5727 5732 5736 5738 5741 5744 5747 5750 5753 5755 5758 5761 5763 5765 5768 5770 5772 5775 5777 5780 5783 5784 5785 5788 5789 5792 5793 5795 5799 5798 5796 5799 5804 5805 5806 5810 5815 5816 5813 5814 5816 5817 5819 5822 5824 5825 5826 5827 5828 5828 5830 5830 5829 5829 5828
5604 5607 5611 5615 5618 5622 5626 5629 5633 5637 5640 5644 5647 5650 5654 5657 5661 5664 5668 5671 5675 5678 5682 5685 5689 5693 5696 5701 5707 5710 5712 5716 5719 5723 5728 5731 5734 5738 5741 5744 5746 5749 5752 5755 5757 5759 5762 5764 5766 5769 5772 5775 5778 5780 5781 5783 5786 5788 5790 5792 5794 5797 5797 5795 5796 5801 5804 5805 5808 5813 5812 5810 5812 5814 5815 5816 5819 5821 5823 5823 5824 5825 5826 5827 5825 5825 5826 5826
5595 5599 5603 5607 5610 5614 5618 5623 5627 5631 5634 5637 5641 5645 5648 5652 5656 5659 5663 5666 5670 5674 5677 5680 5685 5689 5691 5697 5702 5704 5707 5712 5716 5720 5723 5727 5731 5734 5737 5739 5742 5745 5748 5751 5753 5756 5759 5760 5763 5766 5769 5772 5775 5777 5780 5782 5784 5786 5789 5791 5792 5795 5796 5794 5795 5798 5802 5804 5806 5809 5808 5808 5810 5812 5813 5814 5816 5819 5820 5821 5822 5822 5823 5822 5822 5822 5824 5826
5587 5591 5594 5598 5602 5607 5611 5616 5620 5624 5628 5631 5636 5639 5643 5646 5650 5653 5657 5661 5665 5669 5672 5675 5681 5685 5687 5692 5696 5699 5704 5708 5711 5714 5718 5722 5726 5730 5733 5736 5739 5741 5744 5747 5750 5753 5755 5757 5760 5764 5766 5770 5773 5775 5779 5781 5782 5783 5786 5789 5790 5794 5797 5795 5793 5795 5799 5803 5805 5806 5805 5806 5808 5809 5811 5812 5813 5815 5816 5818 5818 5818 5819 5819 5821 5821 5822 5824
5579 5583 5587 5591 5595 5599 5604 5609 5613 5617 5621 5625 5630 5634 5636 5640 5643 5647 5652 5656 5660 5663 5666 5670 5676 5679 5682 5686 5691 5696 5700 5703 5706 5709 5714 5718 5722 5725 5728 5732 5735 5737 5741 5744 5746 5749 5751 5754 5758 5761 5764 5768 5771 5773 5777 5777 5777 5780 5784 5787 5789 5792 5795 5793 5790 5792 5797 5802 5804 5802 5801 5803 5805 5806 5807 5808 5810 5811 5813 5815 5815 5816 5817 5819 5820 5820 5820 5822
5572 5576 5580 5584 5588 5592 5597 5602 5606 5610 5615 5619 5623 5627 5630 5635 5639 5643 5648 5651 5654 5659 5662 5666 5671 5674 5677 5683 5688 5693 5696 5699 5702 5706 5710 5714 5717 5721 5724 5728 5731 5734 5738 5740 5742 5745 5748 5751 5755 5758 5761 5764 5767 5771 5773 5773 5775 5779 5782 5786 5787 5789 5792 5789 5787 5791 5795 5798 5799 5798 5798 5801 5802 5802 5804 5805 5806 5808 5810 5812 5813 5815 5816 5817 5818 5818 5819 5820
5564 5568 5573 5577 5581 5586 5590 5594 5599 5604 5608 5613 5617 5620 5625 5630 5634 5638 5642 5646 5649 5654 5657 5662 5667 5670 5674 5679 5685 5689 5691 5695 5698 5702 5706 5710 5714 5717 5721 5724 5728 5731 5734 5736 5739 5742 5745 5749 5752 5754 5757 5760 5763 5767 5769 5769 5774 5778 5780 5783 5784 5788 5790 5785 5784 5789 5791 5793 5795 5796 5797 5798 5799 5799 5801 5801 5803 5805 5807 5809 5810 5812 5813 5814 5815 5816 5817 5818
5556 5561 5566 5570 5575 5579 5583 5588 5592 5597 5601 5606 5610 5615 5620 5624 5629 5633 5637 5641 5644 5649 5652 5656 5661 5665 5670 5675 5679 5683 5687 5691 5694 5697 5702 5706 5710 5713 5717 5721 5724 5727 5730 5733 5736 5739 5743 5746 5748 5751 5754 5756 5760 5764 5765 5768 5773 5774 5777 5780 5782 5787 5787 5781 5782 5786 5789 5791 5792 5794 5795 5795 5796 5797 5797 5799 5800 5802 5804 5806 5807 5809 5810 5811 5812 5813 5814 5815
5549 5554 5559 5563 5568 5573 5577 5582 5586 5590 5595 5599 5604 5609 5614 5619 5623 5628 5632 5636 5640 5643 5647 5651 5656 5661 5666 5669 5674 5679 5682 5686 5689 5693 5697 5701 5705 5709 5712 5717 5721 5723 5727 5730 5732 5736 5740 5742 5744 5748 5750 5753 5758 5760 5763 5767 5769 5771 5774 5777 5780 5785 5784 5780 5780 5782 5785 5787 5788 5791 5793 5793 5794 5795 5795 5796 5797 5799 5801 5803 5805 5806 5807 5808 5810 5811 5812 5813
5541 5547 5552 5557 5562 5567 5571 5576 5580 5584 5588 5592 5597 5602 5608 5613 5618 5623 5627 5631 5634 5637 5642 5648 5652 5657 5661 5665 5670 5675 5677 5682 5686 5688 5693 5698 5701 5705 5709 5713 5717 5720 5724 5726 5728 5732 5735 5737 5741 5743 5746 5751 5755 5757 5760 5763 5766 5769 5771 5773 5777 5781 5782 5779 5777 5778 5782 5784 5786 5789 5791 5791 5791 5792 5793 5794 5795 5796 5798 5800 5802 5803 5804 5805 5807 5808 5809 5810
5535 5541 5546 5551 5556 5561 5566 5571 5575 5579 5582 5586 5591 5596 5602 5608 5612 5618 5623 5626 5628 5631 5637 5643 5647 5652 5657 5661 5666 5671 5674 5679 5682 5684 5690 5695 5698 5701 5705 5709 5713 5717 5719 5721 5725 5728 5731 5734 5737 5739 5742 5748 5751 5753 5757 5760 5764 5766 5767 5770 5773 5775 5777 5775 5773 5777 5781 5783 5784 5785 5789 5790 5787 5789 5791 5792 5793 5794 5794 5797 5799 5800 5802 5803 5804 5806 5807 5808
5530 5536 5541 5546 5551 5556 5561 5565 5570 5573 5577 5581 5586 5590 5596 5601 5606 5613 5617 5620 5623 5627 5632 5638 5643 5648 5651 5655 5661 5667 5671 5675 5678 5681 5687 5692 5694 5697 5701 5706 5710 5713 5715 5718 5722 5725 5729 5732 5732 5734 5740 5744 5747 5750 5753 5756 5760 5762 5764 5767 5769 5771 5774 5773 5772 5777 5780 5781 5781 5781 5785 5786 5784 5786 5789 5789 5790 5791 5791 5793 5795 5797 5799 5800 5802 5803 5804 5805
5526 5531 5536 5541 5546 5551 5556 5560 5564 5568 5573 5577 5581 5585 5590 5595 5601 5607 5611 5616 5619 5622 5626 5633 5639 5643 5647 5651 5656 5661 5666 5669 5673 5678 5684 5687 5690 5694 5698 5702 5706 5710 5712 5714 5720 5723 5726 5728 5726 5731 5738 5741 5744 5747 5749 5753 5757 5760 5760 5761 5764 5768 5770 5770 5771 5776 5778 5778 5778 5778 5781 5783 5782 5783 5785 5786 5787 5788 5789 5790 5792 5794 5796 5797 5799 5801 5802 5803
5522 5526 5531 5536 5542 5547 5552 5556 5560 5564 5569 5573 5576 5581 5585 5590 5597 5600 5605 5613 5616 5617 5621 5628 5634 5638 5643 5647 5652 5657 5661 5663 5668 5673 5679 5683 5687 5690 5695 5699 5702 5707 5708 5709 5717 5720 5721 5722 5723 5729 5735 5738 5741 5744 5746 5749 5754 5756 5754 5756 5762 5765 5766 5768 5770 5773 5775 5775 5774 5776 5778 5780 5780 5780 5782 5783 5783 5785 5787 5788 5789 5791 5793 5795 5797 5798 5800 5801
5519 5522 5527 5533 5538 5543 5548 5551 5555 5560 5564 5568 5573 5577 5582 5587 5591 5595 5602 5611 5613 5612 5616 5623 5628 5633 5638 5643 5648 5653 5655 5659 5664 5669 5673 5677 5681 5685 5690 5694 5696 5701 5703 5705 5713 5715 5714 5717 5721 5726 5731 5733 5736 5740 5742 5746 5750 5750 5750 5754 5760 5762 5763 5765 5766 5767 5769 5771 5772 5774 5776 5777 5777 5778 5778 5778 5779 5782 5784 5785 5787 5789 5791 5793 5794 5796 5798 5799
5516 5519 5524 5530 5535 5539 5544 5547 5552 5556 5560 5565 5570 5574 5579 5583 5587 5592 5600 5607 5608 5608 5613 5619 5625 5630 5635 5640 5644 5648 5652 5657 5660 5663 5669 5673 5676 5680 5686 5689 5691 5695 5698 5702 5709 5711 5710 5713 5716 5721 5726 5728 5732 5736 5737 5741 5745 5745 5746 5753 5756 5757 5758 5760 5761 5762 5764 5768 5771 5772 5775 5776 5774 5773 5773 5774 5777 5780 5782 5783 5784 5786 5788 5790 5792 5794 5795 5796
5513 5517 5522 5527 5531 5536 5540 5544 5549 5553 5558 5563 5567 5572 5577 5581 5585 5592 5598 5603 5604 5606 5611 5616 5622 5627 5632 5636 5640 5645 5650 5654 5655 5659 5666 5670 5673 5678 5683 5686 5689 5693 5696 5700 5705 5708 5708 5709 5712 5717 5721 5723 5728 5732 5732 5736 5740 5739 5743 5749 5751 5752 5754 5755 5757 5759 5761 5765 5767 5769 5774 5773 5769 5767 5768 5772 5775 5778 5780 5781 5782 5784 5786 5788 5789 5791 5792 5794
5511 5515 5519 5524 5528 5533 5537 5542 5546 5551 5556 5561 5565 5570 5574 5578 5584 5591 5597 5601 5605 5607 5610 5614 5618 5623 5628 5633 5637 5641 5647 5650 5651 5657 5663 5666 5669 5674 5678 5682 5685 5690 5695 5699 5702 5705 5705 5706 5709 5714 5717 5720 5725 5727 5729 5733 5735 5736 5741 5746 5748 5750 5751 5752 5755 5757 5759 5763 5764 5767 5771 5768 5764 5765 5767 5770 5773 5775 5777 5778 5780 5782 5783 5785 5787 5788 5790 5791
5509 5513 5518 5522 5526 5531 5535 5540 5545 5549 5554 5559 5564 5568 5572 5578 5585 5591 5596 5601 5605 5607 5610 5613 5617 5621 5625 5630 5634 5639 5644 5647 5649 5654 5659 5662 5666 5671 5675 5679 5682 5686 5692 5695 5698 5701 5702 5705 5708 5711 5714 5717 5721 5724 5727 5729 5731 5734 5740 5743 5745 5749 5750 5751 5755 5757 5759 5761 5762 5763 5764 5761 5760 5763 5765 5768 5771 5773 5774 5775 5777 5779 5780 5783 5784 5786 5788 5789
5509 5513 5516 5520 5525 5529 5533 5538 5543 5547 5552 5557 5562 5567 5574 5581 5587 5592 5595 5599 5602 5605 5609 5612 5615 5619 5623 5627 5631 5635 5641 5645 5647 5651 5656 5660 5664 5668 5672 5677 5679 5683 5688 5692 5695 5698 5700 5704 5706 5707 5711 5714 5718 5721 5722 5724 5728 5732 5736 5739 5742 5748 5750 5750 5752 5754 5757 5759 5758 5757 5757 5757 5757 5760 5762 5765 5767 5770 5771 5773 5774 5776 5778 5780 5782 5784 5785 5787
5510 5513 5516 5520 5523 5527 5532 5536 5541 5546 5551 5556 5562 5568 5575 5581 5585 5589 5592 5596 5600 5603 5607 5611 5613 5617 5621 5624 5628 5632 5638 5642 5645 5649 5653 5656 5661 5665 5669 5674 5677 5681 5686 5690 5694 5696 5699 5703 5703 5703 5709 5712 5716 5720 5720 5723 5728 5731 5734 5738 5741 5745 5747 5748 5750 5751 5752 5754 5754 5753 5754 5755 5755 5757 5759 5762 5765 5767 5769 5771 5772 5774 5776 5778 5779 5781 5783 5784
5511 5514 5516 5519 5523 5526 5530 5535 5540 5545 5550 5556 5562 5568 5573 5578 5583 5587 5591 5595 5599 5602 5606 5610 5613 5617 5621 5624 5627 5630 5635 5639 5642 5647 5651 5654 5659 5663 5667 5671 5674 5678 5683 5688 5692 5693 5697 5703 5702 5701 5706 5710 5714 5717 5718 5721 5726 5729 5733 5736 5739 5740 5742 5745 5747 5746 5747 5749 5750 5751 5751 5752 5753 5754 5757 5760 5763 5765 5767 5768 5770 5771 5773 5775 5777 5778 5780 5781
5513 5515 5517 5520 5523 5526 5530 5534 5539 5544 5549 5556 5562 5567 5573 5579 5583 5586 5590 5593 5597 5601 5605 5609 5613 5617 5621 5625 5628 5630 5633 5638 5642 5646 5650 5653 5658 5661 5665 5669 5672 5675 5679 5685 5689 5691 5695 5701 5700 5698 5703 5708 5710 5713 5715 5719 5723 5725 5727 5731 5734 5736 5738 5742 5743 5743 5745 5746 5748 5749 5749 5749 5751 5752 5754 5757 5759 5762 5764 5765 5767 5769 5771 5772 5774 5776 5777 5778
5514 5517 5519 5521 5524 5527 5530 5534 5539 5544 5550 5556 5562 5567 5573 5579 5582 5584 5588 5591 5596 5600 5603 5607 5611 5616 5621 5625 5628 5630 5632 5637 5642 5647 5650 5653 5657 5660 5663 5667 5669 5672 5677 5682 5686 5688 5691 5696 5697 5697 5700 5704 5705 5708 5713 5717 5719 5720 5723 5727 5730 5731 5734 5738 5739 5740 5743 5744 5746 5748 5747 5746 5747 5748 5751 5754 5756 5758 5760 5762 5764 5766 5768 5769 5771 5773 5774 5775
5516 5519 5522 5523 5525 5528 5532 5536 5541 5546 5552 5557 5561 5566 5570 5575 5579 5582 5586 5591 5595 5598 5601 5604 5608 5614 5620 5624 5627 5629 5632 5637 5642 5647 5650 5652 5655 5658 5661 5664 5667 5670 5674 5679 5682 5685 5689 5693 5694 5695 5697 5700 5703 5708 5713 5715 5717 5719 5723 5726 5727 5728 5731 5734 5735 5738 5740 5742 5744 5745 5743 5743 5744 5745 5747 5751 5753 5755 5757 5759 5761 5763 5764 5766 5768 5769 5770 5772
5519 5522 5524 5525 5527 5530 5534 5539 5544 5548 5553 5557 5561 5566 5569 5573 5577 5580 5585 5590 5594 5596 5600 5604 5607 5611 5617 5622 5627 5629 5632 5637 5641 5645 5649 5651 5653 5656 5659 5662 5665 5668 5671 5676 5679 5683 5687 5690 5692 5694 5697 5700 5704 5707 5710 5712 5715 5717 5720 5723 5725 5726 5729 5731 5733 5736 5738 5740 5744 5743 5739 5739 5741 5742 5744 5748 5750 5752 5754 5756 5758 5759 5761 5763 5765 5766 5767 5768
5522 5524 5526 5528 5530 5533 5536 5541 5546 5550 5554 5558 5561 5566 5570 5574 5577 5580 5584 5588 5593 5597 5601 5605 5608 5611 5614 5619 5625 5630 5633 5636 5640 5644 5648 5650 5652 5656 5658 5660 5663 5666 5670 5674 5677 5681 5684 5686 5690 5694 5697 5700 5703 5705 5706 5709 5712 5714 5716 5719 5721 5723 5726 5729 5733 5735 5735 5737 5740 5739 5735 5735 5738 5739 5742 5745 5747 5749 5751 5753 5755 5756 5758 5760 5761 5763 5764 5765
5526 5528 5529 5531 5534 5537 5540 5544 5548 5553 5557 5561 5564 5568 5571 5575 5577 5580 5584 5589 5593 5597 5600 5603 5606 5611 5615 5618 5623 5629 5632 5635 5639 5643 5646 5649 5651 5653 5656 5658 5662 5665 5668 5672 5675 5679 5681 5684 5688 5692 5694 5696 5698 5700 5702 5705 5708 5710 5712 5715 5718 5722 5724 5727 5730 5732 5731 5733 5736 5735 5732 5733 5735 5737 5740 5742 5744 5746 5748 5750 5752 5753 5755 5756 5758 5759 5760 5761
5530 5531 5533 5535 5538 5541 5544 5548 5551 5555 5560 5564 5568 5571 5573 5575 5579 5582 5585 5589 5592 5595 5598 5602 5605 5610 5614 5618 5623 5628 5632 5635 5638 5642 5644 5646 5648 5651 5654 5657 5661 5664 5667 5670 5674 5678 5681 5683 5687 5689 5691 5693 5694 5696 5698 5701 5704 5707 5709 5712 5715 5719 5722 5725 5727 5727 5726 5730 5733 5731 5730 5730 5733 5735 5737 5739 5741 5743 5745 5747 5749 5750 5751 5753 5754 5755 5756 5757
5534 5535 5537 5539 5542 5545 5548 5552 5555 5559 5562 5565 5568 5571 5573 5576 5580 5583 5587 5590 5593 5596 5598 5601 5605 5609 5613 5617 5622 5627 5632 5635 5637 5641 5642 5643 5646 5650 5653 5656 5660 5662 5665 5668 5671 5675 5678 5680 5683 5686 5688 5691 5694 5696 5698 5700 5702 5704 5706 5709 5712 5715 5718 5721 5723 5723 5724 5727 5727 5726 5726 5727 5730 5733 5734 5736 5738 5740 5742 5744 5745 5747 5748 5749 5750 5751 5752 5752
5539 5540 5542 5544 5547 5549 5552 5555 5559 5562 5564 5566 5567 5570 5574 5577 5580 5584 5587 5590 5593 5597 5600 5602 5606 5610 5613 5617 5621 5626 5630 5633 5635 5638 5641 5642 5645 5648 5651 5654 5658 5659 5662 5666 5669 5673 5675 5677 5680 5684 5686 5688 5691 5693 5696 5699 5701 5703 5705 5708 5710 5712 5714 5716 5718 5720 5721 5722 5722 5723 5725 5726 5728 5730 5732 5733 5735 5737 5739 5741 5742 5743 5744 5745 5746 5746 5747 5748
5543 5545 5547 5548 5551 5553 5554 5556 5560 5563 5564 5566 5569 5572 5575 5578 5581 5584 5587 5589 5592 5596 5600 5603 5607 5611 5614 5618 5621 5624 5628 5631 5633 5637 5640 5642 5644 5647 5650 5653 5656 5658 5661 5665 5668 5671 5674 5676 5679 5682 5685 5687 5689 5691 5693 5696 5698 5700 5703 5705 5707 5709 5711 5712 5714 5715 5717 5719 5719 5720 5722 5724 5725 5727 5729 5731 5733 5734 5736 5737 5739 5740 5741 5742 5742 5742 5743 5744
5547 5549 5551 5552 5555 5557 5557 5558 5562 5564 5566 5569 5572 5575 5578 5580 5582 5585 5587 5589 5592 5595 5599 5603 5607 5612 5616 5619 5622 5624 5627 5630 5633 5636 5638 5640 5643 5646 5648 5651 5654 5657 5661 5664 5666 5669 5671 5673 5677 5680 5682 5684 5686 5688 5691 5692 5694 5697 5699 5701 5703 5705 5707 5708 5710 5712 5714 5716 5717 5718 5720 5722 5723 5725 5727 5728 5730 5731 5733 5734 5735 5736 5737 5738 5739 5739 5740 5741
5550 5553 5554 5555 5558 5560 5561 5562 5564 5567 5569 5572 5575 5578 5580 5582 5583 5585 5587 5589 5592 5596 5600 5604 5608 5612 5616 5619 5622 5625 5627 5630 5633 5635 5637 5639 5642 5645 5647 5650 5653 5656 5659 5661 5664 5666 5668 5671 5674 5677 5679 5681 5684 5686 5688 5689 5692 5694 5696 5698 5700 5702 5703 5705 5707 5709 5711 5713 5715 5716 5718 5720 5722 5723 5725 5726 5727 5728 5730 5731 5732 5733 5734 5735 5736 5737 5737 5738
5553 5555 5557 5559 5561 5564 5565 5566 5568 5570 5572 5575 5577 5579 5581 5582 5583 5585 5587 5590 5593 5596 5599 5603 5608 5612 5615 5617 5621 5624 5627 5629 5633 5635 5637 5639 5641 5644 5646 5649 5652 5654 5657 5659 5662 5664 5667 5670 5672 5675 5677 5679 5681 5683 5685 5688 5691 5693 5695 5697 5698 5700 5702 5704 5706 5708 5710 5712 5713 5714 5716 5718 5720 5721 5722 5723 5725 5726 5727 5728 5729 5730 5731 5732 5733 5734 5734 5735
5556 5557 5559 5562 5565 5566 5568 5570 5572 5574 5575 5578 5579 5580 5581 5582 5584 5586 5588 5591 5594 5598 5601 5603 5607 5611 5613 5615 5619 5624 5626 5628 5631 5633 5635 5638 5640 5643 5646 5649 5651 5654 5656 5659 5661 5663 5666 5669 5671 5673 5676 5677 5679 5682 5684 5687 5689 5690 5692 5694 5697 5699 5700 5702 5704 5706 5708 5709 5711 5713 5715 5716 5717 5718 5720 5721 5722 5723 5725 5725 5726 5727 5728 5729 5730 5731 5732 5732